| time (UTC) | temp F | wind direction | speed MPH | gust MPH | rain 1hr in | rain 24hr in | rain mn in | humidity % | barometer mb |
| 20260904034429 | 82 | 93 | 5.0 | 13.0 | 0.00 | 0.00 | 0.00 | 74 | 1013.2 |
| 20260904033922 | 82 | 120 | 5.0 | 13.0 | 0.00 | 0.00 | 0.00 | 74 | 1013.2 |
| 20260904033417 | 82 | 130 | 6.0 | 14.0 | 0.00 | 0.00 | 0.00 | 74 | 1013.2 |
| 20260904032910 | 82 | 144 | 6.0 | 14.0 | 0.00 | 0.00 | 0.00 | 74 | 1013.1 |
| 20260904032404 | 82 | 127 | 6.0 | 12.0 | 0.00 | 0.00 | 0.00 | 73 | 1013.0 |
| 20260904031859 | 83 | 163 | 7.0 | 15.0 | 0.00 | 0.00 | 0.00 | 73 | 1012.9 |
| 20260904031353 | 83 | 121 | 8.0 | 15.0 | 0.00 | 0.00 | 0.00 | 73 | 1012.8 |
| 20260904030846 | 83 | 135 | 7.0 | 14.0 | 0.00 | 0.00 | 0.00 | 72 | 1012.9 |
| 20260904030341 | 83 | 159 | 7.0 | 14.0 | 0.00 | 0.00 | 0.00 | 72 | 1012.9 |
| 20260904030105 | 83 | 140 | 7.0 | 13.0 | 0.00 | 0.00 | 0.00 | 72 | 1012.9 |
| 20260904025328 | 83 | 163 | 6.0 | 11.0 | 0.00 | 0.00 | 0.00 | 71 | 1012.8 |
| 20260904024823 | 83 | 127 | 7.0 | 13.0 | 0.00 | 0.00 | 0.00 | 71 | 1012.6 |
| 20260904024818 | 83 | 152 | 8.0 | 15.0 | 0.00 | 0.00 | 0.00 | 71 | 1012.6 |
| 20260904023813 | 84 | 119 | 7.0 | 18.0 | 0.00 | 0.00 | 0.00 | 70 | 1012.6 |
| 20260904023314 | 84 | 169 | 7.0 | 17.0 | 0.00 | 0.00 | 0.00 | 70 | 1012.5 |
| 20260904022813 | 84 | 173 | 7.0 | 17.0 | 0.00 | 0.00 | 0.00 | 70 | 1012.5 |
| 20260904022314 | 84 | 116 | 6.0 | 16.0 | 0.00 | 0.00 | 0.00 | 69 | 1012.5 |
| 20260904022045 | 84 | 112 | 7.0 | 16.0 | 0.00 | 0.00 | 0.00 | 69 | 1012.4 |
| 20260904021315 | 84 | 155 | 6.0 | 13.0 | 0.00 | 0.00 | 0.00 | 68 | 1012.3 |
| 20260904020815 | 85 | 140 | 5.0 | 13.0 | 0.00 | 0.00 | 0.00 | 68 | 1012.3 |
| 20260904020319 | 85 | 147 | 7.0 | 15.0 | 0.00 | 0.00 | 0.00 | 67 | 1012.2 |
| 20260904020314 | 85 | 157 | 5.0 | 14.0 | 0.00 | 0.00 | 0.00 | 68 | 1012.3 |
| 20260904015315 | 85 | 137 | 7.0 | 15.0 | 0.00 | 0.00 | 0.00 | 67 | 1012.1 |
| 20260904014810 | 85 | 59 | 6.0 | 14.0 | 0.00 | 0.00 | 0.00 | 67 | 1011.7 |
| 20260904014541 | 85 | 116 | 6.0 | 14.0 | 0.00 | 0.00 | 0.00 | 66 | 1011.8 |
| 20260904013810 | 85 | 134 | 5.0 | 11.0 | 0.00 | 0.00 | 0.00 | 66 | 1011.7 |
| 20260904013311 | 86 | 152 | 5.0 | 14.0 | 0.00 | 0.00 | 0.00 | 66 | 1011.5 |
| 20260904012810 | 86 | 133 | 5.0 | 14.0 | 0.00 | 0.00 | 0.00 | 66 | 1011.4 |
| 20260904012540 | 86 | 186 | 4.0 | 12.0 | 0.00 | 0.00 | 0.00 | 65 | 1011.5 |
| 20260904011809 | 86 | 130 | 4.0 | 12.0 | 0.00 | 0.00 | 0.00 | 65 | 1011.5 |
| 20260904011311 | 86 | 139 | 4.0 | 10.0 | 0.00 | 0.00 | 0.00 | 65 | 1011.5 |
| 20260904010811 | 86 | 128 | 5.0 | 12.0 | 0.00 | 0.00 | 0.00 | 64 | 1011.5 |
| 20260904010305 | 87 | 150 | 6.0 | 12.0 | 0.00 | 0.00 | 0.00 | 64 | 1011.5 |
| 20260904005805 | 87 | 138 | 5.0 | 13.0 | 0.00 | 0.00 | 0.00 | 64 | 1011.5 |
| 20260904005306 | 87 | 134 | 6.0 | 15.0 | 0.00 | 0.00 | 0.00 | 64 | 1011.6 |
| 20260904004805 | 87 | 75 | 6.0 | 15.0 | 0.00 | 0.00 | 0.00 | 64 | 1011.5 |
| 20260904004304 | 87 | 201 | 5.0 | 15.0 | 0.00 | 0.00 | 0.00 | 63 | 1011.6 |
| 20260904003801 | 87 | 150 | 5.0 | 14.0 | 0.00 | 0.00 | 0.00 | 63 | 1011.6 |
| 20260904003301 | 88 | 165 | 5.0 | 14.0 | 0.00 | 0.00 | 0.00 | 63 | 1011.6 |
| 20260904002801 | 88 | 144 | 5.0 | 12.0 | 0.00 | 0.00 | 0.00 | 63 | 1011.4 |
| 20260904002301 | 88 | 140 | 5.0 | 10.0 | 0.00 | 0.00 | 0.00 | 63 | 1011.4 |
| 20260904001801 | 88 | 129 | 5.0 | 14.0 | 0.00 | 0.00 | 0.00 | 63 | 1011.4 |
| 20260904001532 | 88 | 111 | 6.0 | 14.0 | 0.00 | 0.00 | 0.00 | 63 | 1011.5 |
| 20260904000802 | 89 | 132 | 7.0 | 13.0 | 0.00 | 0.00 | 0.00 | 62 | 1011.5 |
| 20260904000303 | 89 | 125 | 8.0 | 17.0 | 0.00 | 0.00 | 0.00 | 62 | 1011.4 |
| 20260903235801 | 89 | 150 | 8.0 | 17.0 | 0.00 | 0.00 | 0.00 | 62 | 1011.5 |
| 20260903235305 | 89 | 109 | 8.0 | 18.0 | 0.00 | 0.00 | 0.00 | 61 | 1011.6 |
| 20260903234755 | 90 | 150 | 8.0 | 18.0 | 0.00 | 0.00 | 0.00 | 60 | 1011.5 |
| 20260903234250 | 90 | 170 | 6.0 | 16.0 | 0.00 | 0.00 | 0.00 | 60 | 1011.4 |
| 20260903233744 | 90 | 148 | 6.0 | 14.0 | 0.00 | 0.00 | 0.00 | 60 | 1011.3 |
| 20260903233238 | 90 | 138 | 8.0 | 21.0 | 0.00 | 0.00 | 0.00 | 62 | 1011.3 |
| 20260903232731 | 91 | 175 | 8.0 | 21.0 | 0.00 | 0.00 | 0.00 | 61 | 1011.3 |
| 20260903232226 | 91 | 125 | 7.0 | 16.0 | 0.00 | 0.00 | 0.00 | 61 | 1011.2 |
| 20260903231951 | 91 | 91 | 7.0 | 16.0 | 0.00 | 0.00 | 0.00 | 61 | 1011.2 |
| 20260903231445 | 91 | 124 | 7.0 | 16.0 | 0.00 | 0.00 | 0.00 | 61 | 1011.2 |
| 20260903230707 | 92 | 132 | 8.0 | 16.0 | 0.00 | 0.00 | 0.00 | 61 | 1011.2 |
| 20260903230202 | 92 | 86 | 8.0 | 16.0 | 0.00 | 0.00 | 0.00 | 61 | 1011.1 |
| 20260903225656 | 93 | 109 | 8.0 | 17.0 | 0.00 | 0.00 | 0.00 | 59 | 1011.0 |
| 20260903225150 | 94 | 144 | 8.0 | 18.0 | 0.00 | 0.00 | 0.00 | 55 | 1010.8 |
| 20260903224643 | 94 | 189 | 7.0 | 18.0 | 0.00 | 0.00 | 0.00 | 53 | 1010.8 |
| 20260903224138 | 94 | 126 | 6.0 | 16.0 | 0.00 | 0.00 | 0.00 | 51 | 1010.6 |
| 20260903223902 | 94 | 140 | 6.0 | 16.0 | 0.00 | 0.00 | 0.00 | 51 | 1010.5 |
| 20260903223126 | 94 | 159 | 6.0 | 17.0 | 0.00 | 0.00 | 0.00 | 51 | 1010.5 |
| 20260903222851 | 94 | 170 | 6.0 | 17.0 | 0.00 | 0.00 | 0.00 | 51 | 1010.5 |
| 20260903222114 | 95 | 12 | 7.0 | 16.0 | 0.00 | 0.00 | 0.00 | 51 | 1010.4 |
| 20260903221608 | 95 | 167 | 7.0 | 16.0 | 0.00 | 0.00 | 0.00 | 51 | 1010.5 |
| 20260903221102 | 95 | 149 | 7.0 | 16.0 | 0.00 | 0.00 | 0.00 | 50 | 1010.5 |
| 20260903220556 | 96 | 155 | 7.0 | 16.0 | 0.00 | 0.00 | 0.00 | 50 | 1010.5 |
| 20260903220321 | 97 | 134 | 7.0 | 16.0 | 0.00 | 0.00 | 0.00 | 49 | 1010.3 |
| 20260903215545 | 97 | 104 | 6.0 | 15.0 | 0.00 | 0.00 | 0.00 | 48 | 1010.4 |
| 20260903215038 | 98 | 161 | 6.0 | 15.0 | 0.00 | 0.00 | 0.00 | 47 | 1010.4 |
| 20260903214805 | 98 | 136 | 6.0 | 15.0 | 0.00 | 0.00 | 0.00 | 46 | 1010.4 |
| 20260903214026 | 99 | 144 | 6.0 | 15.0 | 0.00 | 0.00 | 0.00 | 45 | 1010.3 |
| 20260903213522 | 99 | 178 | 4.0 | 13.0 | 0.00 | 0.00 | 0.00 | 46 | 1010.3 |
| 20260903213517 | 99 | 167 | 5.0 | 13.0 | 0.00 | 0.00 | 0.00 | 47 | 1010.4 |
| 20260903212507 | 99 | 114 | 6.0 | 13.0 | 0.00 | 0.00 | 0.00 | 46 | 1010.4 |
| 20260903212001 | 100 | 142 | 5.0 | 12.0 | 0.00 | 0.00 | 0.00 | 46 | 1010.6 |
| 20260903211456 | 100 | 102 | 4.0 | 11.0 | 0.00 | 0.00 | 0.00 | 47 | 1010.5 |
| 20260903210950 | 100 | 135 | 4.0 | 10.0 | 0.00 | 0.00 | 0.00 | 46 | 1010.5 |
| 20260903210444 | 100 | 143 | 5.0 | 10.0 | 0.00 | 0.00 | 0.00 | 45 | 1010.6 |
| 20260903205938 | 101 | 118 | 4.0 | 10.0 | 0.00 | 0.00 | 0.00 | 45 | 1010.7 |
| 20260903205432 | 101 | 109 | 4.0 | 13.0 | 0.00 | 0.00 | 0.00 | 46 | 1010.8 |
| 20260903204925 | 102 | 145 | 4.0 | 13.0 | 0.00 | 0.00 | 0.00 | 44 | 1010.8 |
| 20260903204650 | 102 | 302 | 3.0 | 8.0 | 0.00 | 0.00 | 0.00 | 45 | 1010.8 |
| 20260903203914 | 101 | 194 | 4.0 | 9.0 | 0.00 | 0.00 | 0.00 | 44 | 1010.9 |
| 20260903203408 | 101 | 148 | 3.0 | 10.0 | 0.00 | 0.00 | 0.00 | 44 | 1011.1 |
| 20260903202901 | 101 | 144 | 3.0 | 10.0 | 0.00 | 0.00 | 0.00 | 46 | 1011.2 |
| 20260903202627 | 101 | 101 | 4.0 | 8.0 | 0.00 | 0.00 | 0.00 | 44 | 1011.3 |
| 20260903202122 | 102 | 126 | 4.0 | 10.0 | 0.00 | 0.00 | 0.00 | 44 | 1011.3 |
| 20260903201343 | 102 | 153 | 3.0 | 10.0 | 0.00 | 0.00 | 0.00 | 45 | 1011.3 |
| 20260903201108 | 103 | 141 | 2.0 | 10.0 | 0.00 | 0.00 | 0.00 | 43 | 1011.4 |
| 20260903200332 | 103 | 164 | 3.0 | 10.0 | 0.00 | 0.00 | 0.00 | 43 | 1011.5 |
| 20260903195826 | 103 | 169 | 3.0 | 8.0 | 0.00 | 0.00 | 0.00 | 44 | 1011.4 |
| 20260903195320 | 102 | 143 | 3.0 | 9.0 | 0.00 | 0.00 | 0.00 | 45 | 1011.4 |
| 20260903194813 | 102 | 180 | 3.0 | 9.0 | 0.00 | 0.00 | 0.00 | 45 | 1011.4 |
| 20260903194308 | 102 | 165 | 3.0 | 9.0 | 0.00 | 0.00 | 0.00 | 45 | 1011.5 |
| 20260903193802 | 102 | 181 | 3.0 | 9.0 | 0.00 | 0.00 | 0.00 | 45 | 1011.7 |
| 20260903193256 | 103 | 127 | 2.0 | 9.0 | 0.00 | 0.00 | 0.00 | 44 | 1011.7 |
| 20260903192749 | 103 | 110 | 3.0 | 11.0 | 0.00 | 0.00 | 0.00 | 44 | 1011.8 |
| 20260903192244 | 102 | 189 | 3.0 | 11.0 | 0.00 | 0.00 | 0.00 | 45 | 1011.8 |
| 20260903191738 | 102 | 176 | 3.0 | 10.0 | 0.00 | 0.00 | 0.00 | 46 | 1011.8 |
| 20260903191231 | 102 | 125 | 3.0 | 10.0 | 0.00 | 0.00 | 0.00 | 45 | 1012.1 |
| 20260903190726 | 102 | 144 | 2.0 | 8.0 | 0.00 | 0.00 | 0.00 | 46 | 1012.1 |
| 20260903190219 | 101 | 127 | 3.0 | 8.0 | 0.00 | 0.00 | 0.00 | 48 | 1012.2 |
| 20260903185946 | 101 | 113 | 3.0 | 11.0 | 0.00 | 0.00 | 0.00 | 47 | 1012.4 |
| 20260903185212 | 100 | 135 | 3.0 | 11.0 | 0.00 | 0.00 | 0.00 | 46 | 1012.5 |
| 20260903184944 | 101 | 59 | 4.0 | 13.0 | 0.00 | 0.00 | 0.00 | 47 | 1012.6 |
| 20260903184211 | 101 | 199 | 4.0 | 13.0 | 0.00 | 0.00 | 0.00 | 47 | 1012.8 |
| 20260903183942 | 101 | 113 | 4.0 | 10.0 | 0.00 | 0.00 | 0.00 | 47 | 1012.9 |
| 20260903183212 | 101 | 119 | 3.0 | 9.0 | 0.00 | 0.00 | 0.00 | 47 | 1012.8 |
| 20260903182943 | 101 | 30 | 4.0 | 10.0 | 0.00 | 0.00 | 0.00 | 50 | 1012.9 |
| 20260903182210 | 101 | 168 | 4.0 | 11.0 | 0.00 | 0.00 | 0.00 | 49 | 1013.1 |
| 20260903181716 | 100 | 121 | 2.0 | 8.0 | 0.00 | 0.00 | 0.00 | 49 | 1013.1 |
| 20260903181711 | 100 | 169 | 3.0 | 11.0 | 0.00 | 0.00 | 0.00 | 49 | 1013.0 |
| 20260903180711 | 99 | 185 | 3.0 | 8.0 | 0.00 | 0.00 | 0.00 | 48 | 1013.2 |
| 20260903180211 | 98 | 179 | 2.0 | 6.0 | 0.00 | 0.00 | 0.00 | 47 | 1013.3 |
| 20260903175712 | 98 | 16 | 2.0 | 6.0 | 0.00 | 0.00 | 0.00 | 50 | 1013.3 |
| 20260903175212 | 97 | 197 | 3.0 | 7.0 | 0.00 | 0.00 | 0.00 | 51 | 1013.4 |
| 20260903174711 | 97 | 201 | 3.0 | 10.0 | 0.00 | 0.00 | 0.00 | 53 | 1013.5 |
| 20260903174212 | 97 | 115 | 3.0 | 10.0 | 0.00 | 0.00 | 0.00 | 53 | 1013.5 |
| 20260903173710 | 96 | 111 | 3.0 | 9.0 | 0.00 | 0.00 | 0.00 | 53 | 1013.5 |
| 20260903173210 | 96 | 148 | 3.0 | 11.0 | 0.00 | 0.00 | 0.00 | 54 | 1013.5 |
| 20260903172711 | 96 | 150 | 3.0 | 11.0 | 0.00 | 0.00 | 0.00 | 56 | 1013.6 |
| 20260903172211 | 96 | 178 | 3.0 | 11.0 | 0.00 | 0.00 | 0.00 | 54 | 1013.7 |
| 20260903171711 | 95 | 135 | 2.0 | 11.0 | 0.00 | 0.00 | 0.00 | 55 | 1013.7 |
| 20260903171211 | 95 | 193 | 3.0 | 11.0 | 0.00 | 0.00 | 0.00 | 54 | 1013.7 |
| 20260903170710 | 94 | 134 | 3.0 | 11.0 | 0.00 | 0.00 | 0.00 | 54 | 1013.8 |
| 20260903170441 | 94 | 180 | 3.0 | 8.0 | 0.00 | 0.00 | 0.00 | 54 | 1013.8 |
| 20260903165941 | 94 | 192 | 2.0 | 8.0 | 0.00 | 0.00 | 0.00 | 55 | 1013.8 |
| 20260903165211 | 93 | 205 | 3.0 | 10.0 | 0.00 | 0.00 | 0.00 | 56 | 1013.8 |
| 20260903164711 | 93 | 173 | 4.0 | 10.0 | 0.00 | 0.00 | 0.00 | 57 | 1013.9 |
| 20260903164210 | 93 | 200 | 4.0 | 10.0 | 0.00 | 0.00 | 0.00 | 57 | 1013.9 |
| 20260903163709 | 93 | 265 | 3.0 | 10.0 | 0.00 | 0.00 | 0.00 | 58 | 1013.9 |
| 20260903163207 | 92 | 149 | 2.0 | 6.0 | 0.00 | 0.00 | 0.00 | 59 | 1014.0 |
| 20260903162705 | 92 | 204 | 2.0 | 14.0 | 0.00 | 0.00 | 0.00 | 61 | 1013.9 |
| 20260903162204 | 92 | 182 | 3.0 | 14.0 | 0.00 | 0.00 | 0.00 | 60 | 1014.2 |
| 20260903161705 | 91 | 146 | 4.0 | 11.0 | 0.00 | 0.00 | 0.00 | 61 | 1014.1 |
| 20260903161202 | 91 | 144 | 5.0 | 11.0 | 0.00 | 0.00 | 0.00 | 61 | 1014.0 |
| 20260903160703 | 91 | 180 | 3.0 | 9.0 | 0.00 | 0.00 | 0.00 | 61 | 1014.0 |
| 20260903160429 | 91 | 173 | 2.0 | 9.0 | 0.00 | 0.00 | 0.00 | 63 | 1014.0 |
| 20260903155650 | 90 | 197 | 2.0 | 8.0 | 0.00 | 0.00 | 0.00 | 64 | 1014.1 |
| 20260903155146 | 90 | 203 | 2.0 | 10.0 | 0.00 | 0.00 | 0.00 | 64 | 1014.0 |
| 20260903154639 | 89 | 267 | 3.0 | 10.0 | 0.00 | 0.00 | 0.00 | 64 | 1014.0 |
| 20260903154133 | 89 | 306 | 2.0 | 8.0 | 0.00 | 0.00 | 0.00 | 66 | 1013.9 |
| 20260903153627 | 88 | 327 | 3.0 | 10.0 | 0.00 | 0.00 | 0.00 | 66 | 1014.0 |
| 20260903153121 | 88 | 200 | 3.0 | 10.0 | 0.00 | 0.00 | 0.00 | 67 | 1013.9 |
| 20260903152615 | 87 | 175 | 3.0 | 9.0 | 0.00 | 0.00 | 0.00 | 69 | 1014.0 |
| 20260903152340 | 87 | 195 | 3.0 | 9.0 | 0.00 | 0.00 | 0.00 | 69 | 1014.0 |
| 20260903151603 | 87 | 152 | 3.0 | 11.0 | 0.00 | 0.00 | 0.00 | 70 | 1013.9 |
| 20260903151327 | 87 | 177 | 4.0 | 11.0 | 0.00 | 0.00 | 0.00 | 71 | 1014.0 |
| 20260903150820 | 86 | 170 | 3.0 | 11.0 | 0.00 | 0.00 | 0.00 | 71 | 1014.0 |
| 20260903150043 | 86 | 162 | 3.0 | 12.0 | 0.00 | 0.00 | 0.00 | 72 | 1014.0 |
| 20260903145539 | 85 | 211 | 3.0 | 12.0 | 0.00 | 0.00 | 0.00 | 72 | 1013.9 |
| 20260903145534 | 85 | 204 | 3.0 | 12.0 | 0.00 | 0.00 | 0.00 | 73 | 1013.9 |
| 20260903144524 | 85 | 171 | 2.0 | 12.0 | 0.00 | 0.00 | 0.00 | 74 | 1014.0 |
| 20260903144019 | 85 | 205 | 3.0 | 11.0 | 0.00 | 0.00 | 0.00 | 75 | 1013.9 |
| 20260903143513 | 84 | 142 | 3.0 | 11.0 | 0.00 | 0.00 | 0.00 | 75 | 1013.9 |
| 20260903143007 | 84 | 167 | 3.0 | 10.0 | 0.00 | 0.00 | 0.00 | 76 | 1013.9 |
| 20260903142501 | 83 | 199 | 3.0 | 11.0 | 0.00 | 0.00 | 0.00 | 77 | 1013.9 |
| 20260903141955 | 83 | 163 | 3.0 | 11.0 | 0.00 | 0.00 | 0.00 | 77 | 1014.0 |
| 20260903141950 | 83 | 180 | 3.0 | 11.0 | 0.00 | 0.00 | 0.00 | 78 | 1014.0 |
| 20260903140943 | 83 | 206 | 3.0 | 11.0 | 0.00 | 0.00 | 0.00 | 78 | 1014.0 |
| 20260903140708 | 83 | 177 | 2.0 | 8.0 | 0.00 | 0.00 | 0.00 | 79 | 1014.1 |
| 20260903135931 | 83 | 155 | 2.0 | 8.0 | 0.00 | 0.00 | 0.00 | 79 | 1014.0 |
| 20260903135425 | 82 | 123 | 2.0 | 9.0 | 0.00 | 0.00 | 0.00 | 79 | 1014.0 |
| 20260903134919 | 82 | 212 | 3.0 | 9.0 | 0.00 | 0.00 | 0.00 | 80 | 1014.0 |
| 20260903134412 | 82 | 296 | 3.0 | 7.0 | 0.00 | 0.00 | 0.00 | 80 | 1014.0 |
| 20260903133907 | 82 | 134 | 2.0 | 7.0 | 0.00 | 0.00 | 0.00 | 81 | 1014.0 |
| 20260903133401 | 82 | 140 | 2.0 | 9.0 | 0.00 | 0.00 | 0.00 | 81 | 1014.0 |
| 20260903132855 | 82 | 177 | 2.0 | 7.0 | 0.00 | 0.00 | 0.00 | 81 | 1014.2 |
| 20260903132349 | 81 | 171 | 3.0 | 9.0 | 0.00 | 0.00 | 0.00 | 81 | 1014.2 |
| 20260903132344 | 81 | 175 | 3.0 | 9.0 | 0.00 | 0.00 | 0.00 | 82 | 1014.2 |
| 20260903131337 | 81 | 193 | 3.0 | 7.0 | 0.00 | 0.00 | 0.00 | 82 | 1014.1 |
| 20260903130830 | 81 | 180 | 2.0 | 7.0 | 0.00 | 0.00 | 0.00 | 82 | 1014.2 |
| 20260903130325 | 81 | 145 | 3.0 | 7.0 | 0.00 | 0.00 | 0.00 | 82 | 1014.1 |
| 20260903130049 | 81 | 148 | 3.0 | 10.0 | 0.00 | 0.00 | 0.00 | 82 | 1014.2 |
| 20260903125313 | 81 | 186 | 3.0 | 10.0 | 0.00 | 0.00 | 0.00 | 82 | 1014.1 |
| 20260903124806 | 80 | 160 | 3.0 | 8.0 | 0.00 | 0.00 | 0.00 | 82 | 1014.0 |
| 20260903124301 | 80 | 193 | 3.0 | 8.0 | 0.00 | 0.00 | 0.00 | 83 | 1013.9 |
| 20260903123755 | 80 | 157 | 3.0 | 8.0 | 0.00 | 0.00 | 0.00 | 83 | 1013.9 |
| 20260903123249 | 80 | 140 | 2.0 | 7.0 | 0.00 | 0.00 | 0.00 | 83 | 1013.8 |
| 20260903122743 | 80 | 181 | 1.0 | 7.0 | 0.00 | 0.00 | 0.00 | 83 | 1013.8 |
| 20260903122509 | 80 | 178 | 2.0 | 6.0 | 0.00 | 0.00 | 0.00 | 83 | 1013.8 |
| 20260903121731 | 80 | 169 | 2.0 | 6.0 | 0.00 | 0.00 | 0.00 | 83 | 1013.8 |
| 20260903121225 | 80 | 169 | 2.0 | 7.0 | 0.00 | 0.00 | 0.00 | 83 | 1013.7 |
| 20260903120719 | 80 | 168 | 2.0 | 7.0 | 0.00 | 0.00 | 0.00 | 83 | 1013.8 |
| 20260903120213 | 80 | 181 | 2.0 | 8.0 | 0.00 | 0.00 | 0.00 | 83 | 1013.7 |
| 20260903115706 | 80 | 161 | 2.0 | 8.0 | 0.00 | 0.00 | 0.00 | 83 | 1013.7 |
| 20260903115207 | 80 | 170 | 2.0 | 7.0 | 0.00 | 0.00 | 0.00 | 84 | 1013.8 |
| 20260903114707 | 80 | 171 | 2.0 | 8.0 | 0.00 | 0.00 | 0.00 | 84 | 1013.6 |
| 20260903114205 | 80 | 144 | 1.0 | 8.0 | 0.00 | 0.00 | 0.00 | 84 | 1013.7 |
| 20260903113705 | 80 | 208 | 2.0 | 6.0 | 0.00 | 0.00 | 0.00 | 84 | 1013.5 |
| 20260903113205 | 80 | 148 | 2.0 | 5.0 | 0.00 | 0.00 | 0.00 | 84 | 1013.6 |
| 20260903112704 | 80 | 178 | 2.0 | 5.0 | 0.00 | 0.00 | 0.00 | 84 | 1013.6 |
| 20260903112204 | 80 | 167 | 2.0 | 5.0 | 0.00 | 0.00 | 0.00 | 84 | 1013.6 |
| 20260903111705 | 80 | 157 | 2.0 | 5.0 | 0.00 | 0.00 | 0.00 | 84 | 1013.6 |
| 20260903111203 | 80 | 159 | 2.0 | 5.0 | 0.00 | 0.00 | 0.00 | 84 | 1013.5 |
| 20260903110701 | 80 | 159 | 2.0 | 6.0 | 0.00 | 0.00 | 0.00 | 84 | 1013.5 |
| 20260903110159 | 80 | 175 | 2.0 | 7.0 | 0.00 | 0.00 | 0.00 | 84 | 1013.5 |
| 20260903105657 | 80 | 174 | 3.0 | 7.0 | 0.00 | 0.00 | 0.00 | 84 | 1013.5 |
| 20260903105156 | 80 | 148 | 2.0 | 6.0 | 0.00 | 0.00 | 0.00 | 84 | 1013.4 |
| 20260903104656 | 80 | 155 | 3.0 | 6.0 | 0.00 | 0.00 | 0.00 | 84 | 1013.4 |
| 20260903104154 | 80 | 166 | 3.0 | 9.0 | 0.00 | 0.00 | 0.00 | 84 | 1013.3 |
| 20260903103654 | 80 | 154 | 3.0 | 9.0 | 0.00 | 0.00 | 0.00 | 84 | 1013.3 |
| 20260903103155 | 80 | 173 | 3.0 | 9.0 | 0.00 | 0.00 | 0.00 | 84 | 1013.3 |
| 20260903102923 | 80 | 165 | 3.0 | 9.0 | 0.00 | 0.00 | 0.00 | 84 | 1013.2 |
| 20260903102150 | 80 | 184 | 3.0 | 10.0 | 0.00 | 0.00 | 0.00 | 83 | 1013.3 |
| 20260903101650 | 80 | 176 | 3.0 | 10.0 | 0.00 | 0.00 | 0.00 | 83 | 1013.2 |
| 20260903101151 | 80 | 182 | 3.0 | 10.0 | 0.00 | 0.00 | 0.00 | 83 | 1013.2 |
| 20260903100650 | 80 | 168 | 3.0 | 10.0 | 0.00 | 0.00 | 0.00 | 83 | 1013.2 |
| 20260903100421 | 80 | 175 | 3.0 | 7.0 | 0.00 | 0.00 | 0.00 | 83 | 1013.2 |
| 20260903095650 | 80 | 159 | 3.0 | 9.0 | 0.00 | 0.00 | 0.00 | 83 | 1013.3 |
| 20260903095151 | 80 | 178 | 3.0 | 9.0 | 0.00 | 0.00 | 0.00 | 83 | 1013.3 |
| 20260903094651 | 80 | 157 | 3.0 | 8.0 | 0.00 | 0.00 | 0.00 | 83 | 1013.5 |
| 20260903094145 | 80 | 150 | 4.0 | 8.0 | 0.00 | 0.00 | 0.00 | 83 | 1013.5 |
| 20260903093651 | 80 | 180 | 3.0 | 8.0 | 0.00 | 0.00 | 0.00 | 83 | 1013.4 |
| 20260903093647 | 80 | 161 | 4.0 | 8.0 | 0.00 | 0.00 | 0.00 | 83 | 1013.4 |
| 20260903092646 | 80 | 159 | 3.0 | 7.0 | 0.00 | 0.00 | 0.00 | 83 | 1013.5 |
| 20260903092145 | 80 | 205 | 3.0 | 7.0 | 0.00 | 0.00 | 0.00 | 82 | 1013.4 |
| 20260903091645 | 80 | 167 | 3.0 | 6.0 | 0.00 | 0.00 | 0.00 | 82 | 1013.5 |
| 20260903091145 | 80 | 153 | 3.0 | 6.0 | 0.00 | 0.00 | 0.00 | 82 | 1013.5 |
| 20260903090647 | 80 | 179 | 3.0 | 6.0 | 0.00 | 0.00 | 0.00 | 82 | 1013.5 |
| 20260903090147 | 80 | 166 | 3.0 | 7.0 | 0.00 | 0.00 | 0.00 | 82 | 1013.6 |
| 20260903085646 | 80 | 159 | 2.0 | 7.0 | 0.00 | 0.00 | 0.00 | 82 | 1013.6 |
| 20260903085151 | 81 | 149 | 3.0 | 10.0 | 0.00 | 0.00 | 0.00 | 82 | 1013.6 |
| 20260903085147 | 81 | 134 | 3.0 | 10.0 | 0.00 | 0.00 | 0.00 | 82 | 1013.6 |
| 20260903084146 | 81 | 148 | 3.0 | 7.0 | 0.00 | 0.00 | 0.00 | 81 | 1013.6 |
| 20260903083650 | 81 | 140 | 3.0 | 9.0 | 0.00 | 0.00 | 0.00 | 81 | 1013.5 |
| 20260903083645 | 81 | 150 | 3.0 | 9.0 | 0.00 | 0.00 | 0.00 | 81 | 1013.6 |
| 20260903082916 | 81 | 156 | 3.0 | 10.0 | 0.00 | 0.00 | 0.00 | 81 | 1013.4 |
| 20260903082145 | 81 | 180 | 4.0 | 10.0 | 0.00 | 0.00 | 0.00 | 81 | 1013.5 |
| 20260903081646 | 81 | 142 | 4.0 | 13.0 | 0.00 | 0.00 | 0.00 | 81 | 1013.5 |
| 20260903081146 | 81 | 169 | 4.0 | 13.0 | 0.00 | 0.00 | 0.00 | 80 | 1013.4 |
| 20260903080646 | 81 | 134 | 4.0 | 9.0 | 0.00 | 0.00 | 0.00 | 80 | 1013.4 |
| 20260903080146 | 81 | 175 | 4.0 | 8.0 | 0.00 | 0.00 | 0.00 | 80 | 1013.5 |
| 20260903075643 | 81 | 132 | 4.0 | 8.0 | 0.00 | 0.00 | 0.00 | 80 | 1013.5 |
| 20260903075414 | 81 | 182 | 4.0 | 10.0 | 0.00 | 0.00 | 0.00 | 79 | 1013.6 |
| 20260903074638 | 81 | 126 | 4.0 | 10.0 | 0.00 | 0.00 | 0.00 | 79 | 1013.7 |
| 20260903074132 | 82 | 167 | 4.0 | 10.0 | 0.00 | 0.00 | 0.00 | 79 | 1013.9 |
| 20260903073626 | 82 | 142 | 4.0 | 11.0 | 0.00 | 0.00 | 0.00 | 79 | 1013.9 |
| 20260903073347 | 82 | 146 | 4.0 | 10.0 | 0.00 | 0.00 | 0.00 | 78 | 1013.8 |
| 20260903073221 | 82 | 196 | 5.0 | 11.0 | 0.00 | 0.00 | 0.00 | 78 | 1013.8 |
| 20260903072108 | 82 | 146 | 4.0 | 9.0 | 0.00 | 0.00 | 0.00 | 77 | 1013.8 |
| 20260903071602 | 82 | 167 | 4.0 | 9.0 | 0.00 | 0.00 | 0.00 | 77 | 1013.7 |
| 20260903071055 | 82 | 175 | 3.0 | 11.0 | 0.00 | 0.00 | 0.00 | 77 | 1013.7 |
| 20260903070821 | 82 | 153 | 4.0 | 11.0 | 0.00 | 0.00 | 0.00 | 77 | 1013.8 |
| 20260903070044 | 82 | 147 | 5.0 | 11.0 | 0.00 | 0.00 | 0.00 | 77 | 1013.8 |
| 20260903065538 | 82 | 188 | 5.0 | 12.0 | 0.00 | 0.00 | 0.00 | 76 | 1013.8 |
| 20260903065032 | 82 | 172 | 5.0 | 12.0 | 0.00 | 0.00 | 0.00 | 76 | 1013.9 |
| 20260903064528 | 83 | 134 | 5.0 | 14.0 | 0.00 | 0.00 | 0.00 | 75 | 1013.9 |
| 20260903064020 | 83 | 170 | 5.0 | 14.0 | 0.00 | 0.00 | 0.00 | 75 | 1013.9 |
| 20260903063514 | 83 | 150 | 5.0 | 12.0 | 0.00 | 0.00 | 0.00 | 74 | 1014.0 |
| 20260903063008 | 83 | 148 | 6.0 | 12.0 | 0.00 | 0.00 | 0.00 | 74 | 1014.0 |
| 20260903062503 | 83 | 145 | 6.0 | 11.0 | 0.00 | 0.00 | 0.00 | 73 | 1013.9 |
| 20260903061956 | 83 | 153 | 5.0 | 11.0 | 0.00 | 0.00 | 0.00 | 73 | 1013.9 |
| 20260903061450 | 83 | 136 | 5.0 | 12.0 | 0.00 | 0.00 | 0.00 | 73 | 1013.9 |
| 20260903060944 | 83 | 150 | 5.0 | 12.0 | 0.00 | 0.00 | 0.00 | 72 | 1013.9 |
| 20260903060438 | 83 | 186 | 5.0 | 11.0 | 0.00 | 0.00 | 0.00 | 72 | 1013.9 |
| 20260903055935 | 83 | 163 | 4.0 | 11.0 | 0.00 | 0.00 | 0.00 | 71 | 1014.1 |
| 20260903055435 | 84 | 184 | 4.0 | 9.0 | 0.00 | 0.00 | 0.00 | 70 | 1014.0 |
| 20260903054935 | 84 | 171 | 5.0 | 10.0 | 0.00 | 0.00 | 0.00 | 70 | 1014.0 |
| 20260903054435 | 84 | 141 | 6.0 | 14.0 | 0.00 | 0.00 | 0.00 | 69 | 1013.9 |
| 20260903053942 | 84 | 132 | 6.0 | 14.0 | 0.00 | 0.00 | 0.00 | 68 | 1013.9 |
| 20260903053937 | 84 | 152 | 5.0 | 14.0 | 0.00 | 0.00 | 0.00 | 69 | 1013.9 |
| 20260903052939 | 84 | 150 | 7.0 | 17.0 | 0.00 | 0.00 | 0.00 | 68 | 1013.9 |
| 20260903052935 | 84 | 142 | 7.0 | 17.0 | 0.00 | 0.00 | 0.00 | 68 | 1013.8 |
| 20260903051936 | 84 | 161 | 7.0 | 14.0 | 0.00 | 0.00 | 0.00 | 67 | 1013.8 |
| 20260903051436 | 85 | 199 | 8.0 | 15.0 | 0.00 | 0.00 | 0.00 | 67 | 1013.9 |
| 20260903050935 | 85 | 124 | 8.0 | 15.0 | 0.00 | 0.00 | 0.00 | 66 | 1013.8 |
| 20260903050437 | 85 | 165 | 8.0 | 16.0 | 0.00 | 0.00 | 0.00 | 66 | 1013.8 |
| 20260903050206 | 85 | 159 | 7.0 | 16.0 | 0.00 | 0.00 | 0.00 | 65 | 1013.9 |
| 20260903045434 | 85 | 148 | 7.0 | 16.0 | 0.00 | 0.00 | 0.00 | 64 | 1013.7 |
| 20260903044934 | 85 | 103 | 7.0 | 16.0 | 0.00 | 0.00 | 0.00 | 64 | 1013.7 |
| 20260903044428 | 85 | 121 | 7.0 | 14.0 | 0.00 | 0.00 | 0.00 | 64 | 1013.9 |
| 20260903043922 | 86 | 128 | 7.0 | 14.0 | 0.00 | 0.00 | 0.00 | 64 | 1013.9 |
| 20260903043416 | 86 | 142 | 6.0 | 14.0 | 0.00 | 0.00 | 0.00 | 64 | 1013.7 |
| 20260903042910 | 86 | 147 | 6.0 | 11.0 | 0.00 | 0.00 | 0.00 | 64 | 1013.7 |
| 20260903042404 | 86 | 125 | 6.0 | 12.0 | 0.00 | 0.00 | 0.00 | 64 | 1013.5 |
| 20260903041858 | 86 | 121 | 6.0 | 12.0 | 0.00 | 0.00 | 0.00 | 64 | 1013.5 |
| 20260903041623 | 86 | 135 | 6.0 | 10.0 | 0.00 | 0.00 | 0.00 | 64 | 1013.5 |
| 20260903040845 | 86 | 150 | 5.0 | 10.0 | 0.00 | 0.00 | 0.00 | 63 | 1013.5 |
| 20260903040340 | 87 | 119 | 5.0 | 11.0 | 0.00 | 0.00 | 0.00 | 63 | 1013.4 |
| 20260903035832 | 87 | 95 | 4.0 | 11.0 | 0.00 | 0.00 | 0.00 | 63 | 1013.4 |
| 20260903035558 | 87 | 147 | 3.0 | 9.0 | 0.00 | 0.00 | 0.00 | 62 | 1013.4 |
| 20260903034820 | 87 | 111 | 3.0 | 9.0 | 0.00 | 0.00 | 0.00 | 62 | 1013.3 |